SYRACUSE 3A

Last updated on Wed Jul 02 2025 00:02:44 GMT+0000 (Coordinated Universal Time)

1 28885U 05041B 25182.35739625 .00000131 00000+0 00000+0 0 9992 2 28885 3.7475 80.2455 0002793 26.9269 322.9453 1.00274067 72226
UTC large
Height (km)
Speed (km/s)
/
Latitude / Longitude
Inclination (degrees)
Orbital Period (minutes)
Azimuth
Elevation
Range (km)
Doppler Factor

Next 0 passes for location: London (51.5072 / 0.1276)

Sorry there are no passes over London.